Shawano, WI

11:09 PM CDT on September 26, 2016 (GMT -0500)
Shawano

Weather History for KEZS - March, 2014

Change the Weather History Date:

Sunday, March 9, 2014

  Actual Average (KGRB) Record (KGRB)
Temperature  
Mean Temperature 28 °F 28 °F  
Max Temperature 43 °F 36 °F 56 °F (2000)
Min Temperature 14 °F 20 °F -6 °F (1975)
Degree Days  
Heating Degree Days 36 37  
Month to date heating degree days 348  
Since 1 July heating degree days 6188  
Cooling Degree Days 0 0  
Month to date cooling degree days 0  
Year to date cooling degree days 0  
Moisture  
Dew Point 19 °F    
Average Humidity 63    
Maximum Humidity 79    
Minimum Humidity 46    
Precipitation  
Precipitation 0.00 in 0.06 in 1.27 in (1918)
Month to date precipitation 0.51  
Year to date precipitation 2.75  
Snow  
Snow 0.00 in 0.30 in 12.00 in (1918)
Month to date snowfall 3.1  
Since 1 July snowfall 43.3  
Snow Depth -    
Sea Level Pressure  
Sea Level Pressure 29.87 in    
Wind  
Wind Speed 5 mph (SW)    
Max Wind Speed 13 mph    
Max Gust Speed 22 mph    
Visibility 10 miles    
Events      
T = Trace of Precipitation, MM = Missing Value Source: NWS Daily Summary

Daily Weather History Graph

Daily Weather History Graph

Search for Another Location

Airport or City:

Trip Planner

Search our weather history database for the weather conditions in past years. The results will help you decide how hot, cold, wet, or windy it might be!

Date:

Astronomy

Mar. 09, 2014 Rise Set
Actual Time 7:17 AM CDT 6:52 PM CDT
Civil Twilight 6:48 AM CDT 7:21 PM CDT
Nautical Twilight 6:14 AM CDT 7:55 PM CDT
Astronomical Twilight 5:40 AM CDT 8:29 PM CDT
Moon 12:34 PM CDT (3/9) 3:53 AM CDT (3/9)
Length of Visible Light 12h 33m
Length of Day
11h 34m
First Quarter, 61% of the Moon is Illuminated
Mar 9
First Quarter
Mar 16
Full
Mar 23
Last Quarter
Mar 30
New
Apr 7
First Quarter

Hourly Weather History & Observations

Time (CDT) Temp. Windchill Dew Point Humidity Pressure Visibility Wind Dir Wind Speed Gust Speed Precip Events Conditions
12:15 AM 20.1 °F 15.2 °F 11.3 °F 69% 30.16 in 10.0 mi SW 3.5 mph - N/A   Clear
12:35 AM 19.4 °F 12.8 °F 10.9 °F 70% 30.16 in 10.0 mi WSW 4.6 mph - N/A   Clear
12:55 AM 19.8 °F 14.7 °F 11.1 °F 69% 30.15 in 10.0 mi WSW 3.5 mph - N/A   Clear
1:15 AM 19.4 °F - 11.1 °F 70% 30.14 in 10.0 mi Calm Calm - N/A   Clear
1:35 AM 18.7 °F 13.5 °F 10.8 °F 71% 30.14 in 10.0 mi WSW 3.5 mph - N/A   Clear
1:55 AM 18.3 °F 11.5 °F 10.6 °F 72% 30.13 in 10.0 mi WSW 4.6 mph - N/A   Clear
3:15 AM 17.6 °F 12.3 °F 10.4 °F 73% 30.13 in 10.0 mi SW 3.5 mph - N/A   Clear
3:35 AM 17.2 °F - 10.4 °F 75% 30.12 in 10.0 mi Calm Calm - N/A   Clear
4:00 AM 15.8 °F - 9.7 °F 77% 30.11 in 10.0 mi Calm Calm - N/A   Clear
4:15 AM 15.4 °F - 9.5 °F 77% 30.11 in 10.0 mi Calm Calm - N/A   Clear
4:35 AM 15.6 °F - 9.5 °F 77% 30.11 in 10.0 mi Calm Calm - N/A   Clear
4:55 AM 15.3 °F - 9.5 °F 78% 30.10 in 10.0 mi Calm Calm - N/A   Clear
5:15 AM 15.3 °F - 9.3 °F 77% 30.10 in 10.0 mi Calm Calm - N/A   Clear
5:35 AM 14.9 °F 9.2 °F 9.3 °F 79% 30.10 in 10.0 mi SW 3.5 mph - N/A   Clear
5:55 AM 15.3 °F - 9.5 °F 78% 30.10 in 10.0 mi Calm Calm - N/A   Clear
6:15 AM 15.1 °F - 9.3 °F 78% 30.11 in 10.0 mi Calm Calm - N/A   Clear
6:35 AM 15.1 °F - 9.1 °F 77% 30.10 in 10.0 mi Calm Calm - N/A   Clear
6:55 AM 14.9 °F - 9.1 °F 78% 30.10 in 10.0 mi Calm Calm - N/A   Mostly Cloudy
7:15 AM 14.9 °F 9.2 °F 9.3 °F 79% 30.09 in 10.0 mi SSW 3.5 mph - N/A   Scattered Clouds
7:35 AM 15.3 °F - 9.5 °F 78% 30.07 in 10.0 mi Calm Calm - N/A   Clear
7:55 AM 15.8 °F - 10.2 °F 79% 30.06 in 10.0 mi Calm Calm - N/A   Clear
8:15 AM 17.2 °F - 11.3 °F 78% 30.05 in 10.0 mi Calm Calm - N/A   Clear
8:35 AM 18.5 °F 10.4 °F 12.2 °F 76% 30.05 in 10.0 mi SW 5.8 mph - N/A   Clear
8:55 AM 20.3 °F 15.4 °F 12.7 °F 73% 30.03 in 10.0 mi SSW 3.5 mph - N/A   Clear
9:15 AM 21.2 °F 13.6 °F 12.2 °F 68% 30.02 in 10.0 mi SSW 5.8 mph - N/A   Clear
9:35 AM 22.1 °F 14.7 °F 12.2 °F 66% 30.01 in 10.0 mi SSW 5.8 mph - N/A   Clear
9:55 AM 23.0 °F 13.1 °F 12.6 °F 64% 30.01 in 10.0 mi SW 9.2 mph - N/A   Clear
10:15 AM 23.9 °F 14.2 °F 12.7 °F 62% 30.00 in 10.0 mi SW 9.2 mph - N/A   Clear
10:35 AM 24.8 °F 15.3 °F 12.6 °F 60% 29.98 in 10.0 mi SW 9.2 mph - N/A   Clear
10:55 AM 26.1 °F 16.2 °F 12.2 °F 56% 29.96 in 10.0 mi SW 10.4 mph - N/A   Clear
11:15 AM 27.5 °F 18.6 °F 12.2 °F 53% 29.94 in 10.0 mi SW 9.2 mph - N/A   Clear
11:35 AM 28.2 °F 19.5 °F 12.6 °F 52% 29.92 in 10.0 mi SW 9.2 mph 18.4 mph N/A   Clear
11:55 AM 28.9 °F 19.8 °F 13.3 °F 52% 29.92 in 10.0 mi SW 10.4 mph 16.1 mph N/A   Clear
12:15 PM 30.2 °F 20.2 °F 13.6 °F 50% 29.90 in 10.0 mi SW 12.7 mph - N/A   Clear
12:35 PM 31.3 °F 24.7 °F 14.4 °F 50% 29.88 in 10.0 mi SW 6.9 mph 17.3 mph N/A   Clear
12:55 PM 32.4 °F 25.3 °F 15.4 °F 50% 29.86 in 10.0 mi SW 8.1 mph - N/A   Clear
1:15 PM 33.6 °F 27.5 °F 16.0 °F 48% 29.84 in 10.0 mi SW 6.9 mph - N/A   Clear
1:35 PM 35.6 °F 29.2 °F 17.1 °F 47% 29.82 in 10.0 mi SSW 8.1 mph - N/A   Clear
1:55 PM 36.9 °F 29.6 °F 17.6 °F 46% 29.80 in 10.0 mi SW 10.4 mph 18.4 mph N/A   Clear
2:15 PM 37.0 °F 29.8 °F 18.3 °F 47% 29.78 in 10.0 mi SW 10.4 mph 21.9 mph N/A   Clear
2:35 PM 38.5 °F 31.6 °F 19.4 °F 46% 29.76 in 10.0 mi SW 10.4 mph 20.7 mph N/A   Clear
2:55 PM 39.2 °F 33.0 °F 19.8 °F 46% 29.72 in 10.0 mi SSW 9.2 mph 16.1 mph N/A   Clear
3:15 PM 39.4 °F 33.8 °F 20.3 °F 46% 29.72 in 10.0 mi SSW 8.1 mph - N/A   Clear
3:35 PM 40.5 °F 34.1 °F 21.2 °F 46% 29.72 in 10.0 mi SW 10.4 mph 17.3 mph N/A   Clear
3:55 PM 41.4 °F 35.2 °F 22.1 °F 46% 29.71 in 10.0 mi SW 10.4 mph 19.6 mph N/A   Clear
4:15 PM 41.9 °F 35.9 °F 23.4 °F 48% 29.71 in 10.0 mi SW 10.4 mph 18.4 mph N/A   Clear
4:35 PM 42.4 °F 36.1 °F 23.9 °F 48% 29.69 in 10.0 mi SW 11.5 mph 16.1 mph N/A   Clear
4:55 PM 42.8 °F 36.2 °F 24.6 °F 49% 29.68 in 10.0 mi SW 12.7 mph 16.1 mph N/A   Clear
5:15 PM 42.8 °F 37.0 °F 25.5 °F 51% 29.68 in 10.0 mi SW 10.4 mph - N/A   Clear
5:35 PM 43.3 °F 38.1 °F 25.9 °F 50% 29.67 in 10.0 mi SW 9.2 mph 17.3 mph N/A   Clear
5:55 PM 43.5 °F 37.5 °F 26.2 °F 51% 29.67 in 10.0 mi SW 11.5 mph - N/A   Clear
6:15 PM 43.3 °F 37.7 °F 26.6 °F 52% 29.66 in 10.0 mi SW 10.4 mph 16.1 mph N/A   Clear
6:35 PM 43.3 °F 37.2 °F 26.6 °F 52% 29.66 in 10.0 mi SW 11.5 mph 17.3 mph N/A   Clear
6:55 PM 43.2 °F 37.4 °F 27.1 °F 53% 29.66 in 10.0 mi SW 10.4 mph 17.3 mph N/A   Clear
7:15 PM 42.8 °F 37.0 °F 27.7 °F 55% 29.67 in 10.0 mi SW 10.4 mph - N/A   Scattered Clouds
7:35 PM 42.8 °F 37.0 °F 28.2 °F 56% 29.66 in 10.0 mi SW 10.4 mph - N/A   Mostly Cloudy
7:55 PM 42.8 °F 37.5 °F 28.8 °F 58% 29.67 in 10.0 mi WSW 9.2 mph - N/A   Scattered Clouds
8:15 PM 42.3 °F 36.8 °F 29.1 °F 60% 29.67 in 10.0 mi WSW 9.2 mph - N/A   Clear
8:35 PM 42.4 °F 36.5 °F 29.3 °F 60% 29.66 in 10.0 mi WSW 10.4 mph - N/A   Clear
8:55 PM 42.3 °F 37.3 °F 29.3 °F 60% 29.66 in 10.0 mi SW 8.1 mph - N/A   Clear
9:15 PM 41.9 °F 37.5 °F 29.5 °F 61% 29.66 in 10.0 mi SW 6.9 mph - N/A   Clear
9:35 PM 41.9 °F 36.9 °F 29.8 °F 62% 29.66 in 10.0 mi WSW 8.1 mph - N/A   Clear
9:55 PM 41.2 °F 36.0 °F 30.0 °F 65% 29.66 in 10.0 mi SW 8.1 mph - N/A   Clear
10:15 PM 41.2 °F 36.0 °F 30.2 °F 65% 29.66 in 10.0 mi SW 8.1 mph - N/A   Clear
10:35 PM 41.0 °F 37.1 °F 30.2 °F 65% 29.66 in 10.0 mi WSW 5.8 mph - N/A   Clear
10:55 PM 40.6 °F 36.7 °F 30.2 °F 66% 29.66 in 10.0 mi WSW 5.8 mph - N/A   Clear
11:15 PM 40.1 °F 38.0 °F 30.2 °F 68% 29.66 in 10.0 mi WSW 3.5 mph - N/A   Clear
11:35 PM 39.6 °F 37.4 °F 30.2 °F 69% 29.66 in 10.0 mi SW 3.5 mph - N/A   Clear
11:55 PM 39.4 °F - 30.2 °F 70% 29.65 in 10.0 mi Calm Calm - N/A   Clear
12:15 AM 38.3 °F - 30.2 °F 73% 29.65 in 10.0 mi Calm Calm - N/A   Clear
12:35 AM 37.4 °F - 30.0 °F 75% 29.64 in 10.0 mi Calm Calm - N/A   Clear
12:55 AM 36.9 °F - 30.0 °F 76% 29.65 in 10.0 mi Calm Calm - N/A   Clear